EW9826 Weather Reports


Display with metric or nautical units.
time (UTC)temp
F
wind
direction
speed
MPH
gust
MPH
rain 1hr
in
rain 24hr
in
rain mn
in
humidity
%
barometer
mb
20260508143005 63 0 5.0 7.0 0.00 0.00 0.00 52 1017.5
20260508142505 63 4 4.0 8.0 0.00 0.00 0.00 53 1017.6
20260508142005 63 3 2.0 7.0 0.00 0.00 0.00 53 1017.6
20260508141505 63 84 0.0 3.0 0.00 0.00 0.00 49 1017.7
20260508141006 63 84 1.0 3.0 0.00 0.00 0.00 52 1017.7
20260508132005 62 142 3.0 6.0 0.00 0.00 0.00 57 1017.9
20260508131505 62 144 1.0 5.0 0.00 0.00 0.00 56 1017.9
20260508124005 62 11 1.0 6.0 0.00 0.00 0.00 57 1017.9
20260508123504 62 355 2.0 7.0 0.00 0.00 0.00 56 1017.9
20260508123005 63 53 3.0 5.0 0.00 0.00 0.00 57 1017.9
20260508122505 63 10 1.0 3.0 0.00 0.00 0.00 57 1017.9
20260508122005 63 10 1.0 9.0 0.00 0.00 0.00 57 1017.9
20260508115005 62 105 2.0 8.0 0.00 0.00 0.00 58 1017.9
20260508114504 63 327 3.0 6.0 0.00 0.00 0.00 57 1017.9
20260508114005 62 121 2.0 8.0 0.00 0.00 0.00 60 1017.9
20260508113504 61 127 3.0 10.0 0.00 0.00 0.00 59 1017.9
20260508113005 62 94 2.0 7.0 0.00 0.00 0.00 61 1017.9
20260508112505 62 93 3.0 8.0 0.00 0.00 0.00 60 1018.0
20260508112004 61 92 3.0 9.0 0.00 0.00 0.00 61 1017.9
20260508111505 61 117 2.0 7.0 0.00 0.00 0.00 62 1018.0
20260508111005 61 155 3.0 8.0 0.00 0.00 0.00 62 1018.1
20260508110005 61 106 2.0 5.0 0.00 0.00 0.00 63 1018.2
20260508105505 60 105 2.0 7.0 0.00 0.00 0.00 63 1018.2
20260508095005 58 96 3.0 9.0 0.00 0.00 0.00 69 1018.4
20260508094504 57 96 2.0 9.0 0.00 0.00 0.00 69 1018.4
20260508090004 56 98 4.0 8.0 0.00 0.00 0.00 73 1018.4
20260508085504 55 53 2.0 9.0 0.00 0.00 0.00 74 1018.4
20260508085005 55 116 3.0 8.0 0.00 0.00 0.00 75 1018.4
20260508084504 55 133 2.0 7.0 0.00 0.00 0.00 77 1018.4
20260508084009 55 89 4.0 8.0 0.00 0.00 0.00 77 1018.4
20260508083508 54 111 3.0 8.0 0.00 0.00 0.00 78 1018.4
20260508083008 54 115 6.0 10.0 0.00 0.00 0.00 78 1018.4
20260508082508 53 117 5.0 9.0 0.00 0.00 0.00 79 1018.4
20260508082009 53 100 6.0 10.0 0.00 0.00 0.00 79 1018.4
20260508081508 53 103 5.0 10.0 0.00 0.00 0.00 79 1018.4
20260508081009 53 109 5.0 10.0 0.00 0.00 0.00 80 1018.4
20260508074508 52 100 4.0 8.0 0.00 0.00 0.00 81 1018.4
20260508074009 52 99 3.0 9.0 0.00 0.00 0.00 82 1018.4
20260508073508 52 98 5.0 9.0 0.00 0.00 0.00 82 1018.4
20260508073009 52 98 4.0 7.0 0.00 0.00 0.00 82 1018.4
20260508064509 51 96 4.0 9.0 0.00 0.00 0.00 84 1018.0
20260508061508 50 95 3.0 6.0 0.00 0.00 0.00 84 1017.9
20260508061008 50 96 4.0 9.0 0.00 0.00 0.00 84 1017.9
20260508060008 50 95 3.0 7.0 0.00 0.00 0.00 84 1017.9
20260508055509 50 95 2.0 5.0 0.00 0.00 0.00 85 1017.9
20260508055008 50 95 3.0 5.0 0.00 0.00 0.00 85 1017.9
20260508052008 50 94 3.0 6.0 0.00 0.00 0.00 85 1017.7
20260508051508 50 94 3.0 7.0 0.00 0.00 0.00 85 1017.6
20260508051009 50 94 4.0 7.0 0.00 0.00 0.00 85 1017.5
20260508050008 50 9 2.0 5.0 0.00 0.00 0.00 85 1017.5
20260508045507 50 8 3.0 5.0 0.00 0.00 0.00 85 1017.4
20260508045008 50 3 3.0 3.0 0.00 0.00 0.00 85 1017.3
20260508044508 50 4 3.0 5.0 0.00 0.00 0.00 85 1017.3
20260508044007 50 0 2.0 3.0 0.00 0.00 0.00 85 1017.3
20260508043507 50 0 3.0 5.0 0.00 0.00 0.00 85 1017.3
20260508043008 50 355 2.0 5.0 0.00 0.00 0.00 85 1017.3
20260508042008 50 355 3.0 5.0 0.00 0.00 0.00 85 1017.3
20260508035507 50 90 6.0 9.0 0.00 0.00 0.00 84 1017.3
20260508035008 50 83 3.0 8.0 0.00 0.00 0.00 83 1017.3
20260508033508 51 80 3.0 7.0 0.00 0.00 0.00 83 1017.3
20260508031508 51 80 2.0 6.0 0.00 0.00 0.00 83 1017.2
20260508031007 51 80 3.0 8.0 0.00 0.00 0.00 82 1017.2
20260508030007 51 76 2.0 5.0 0.00 0.00 0.00 82 1017.1
20260508022507 52 71 2.0 3.0 0.00 0.00 0.00 82 1017.1
20260508022007 52 71 2.0 5.0 0.00 0.00 0.00 82 1017.1
20260508021507 52 70 3.0 7.0 0.00 0.00 0.00 82 1017.1
20260508021007 52 69 2.0 5.0 0.00 0.00 0.00 82 1017.1
20260508020007 52 69 0.0 3.0 0.00 0.00 0.00 81 1017.1
20260508015507 52 69 1.0 3.0 0.00 0.00 0.00 81 1017.0
20260508015007 52 69 1.0 5.0 0.00 0.00 0.00 81 1016.9
20260508014507 52 69 3.0 5.0 0.00 0.00 0.00 81 1016.9
20260508013508 52 68 2.0 5.0 0.00 0.00 0.00 81 1017.0
20260508011507 52 67 2.0 3.0 0.00 0.00 0.00 80 1017.0
20260508011007 52 67 1.0 3.0 0.00 0.00 0.00 79 1017.1
20260508005007 53 67 3.0 5.0 0.00 0.00 0.00 79 1017.1
20260508004507 53 67 2.0 3.0 0.00 0.00 0.00 78 1017.2
20260508003007 53 62 3.0 5.0 0.00 0.00 0.00 78 1017.2
20260508002507 53 59 2.0 3.0 0.00 0.00 0.00 78 1017.2
20260508002007 53 59 0.0 3.0 0.00 0.00 0.00 78 1017.2
20260507233507 53 59 0.0 1.0 0.00 0.00 0.00 78 1017.3
20260507233007 53 59 0.0 2.0 0.00 0.00 0.00 78 1017.3
20260507231007 53 59 0.0 1.0 0.00 0.00 0.00 77 1017.3
20260507230006 53 59 0.0 1.0 0.00 0.00 0.00 77 1017.3
20260507225506 53 59 0.0 2.0 0.00 0.00 0.00 77 1017.3
20260507225007 53 59 0.0 2.0 0.00 0.00 0.00 76 1017.3
20260507224507 53 59 1.0 2.0 0.00 0.00 0.00 76 1017.3
20260507224007 53 59 0.0 1.0 0.00 0.00 0.00 76 1017.3
20260507223506 53 59 0.0 1.0 0.00 0.00 0.00 76 1017.3
20260507223008 53 59 0.0 1.0 0.00 0.00 0.00 76 1017.3
20260507222507 53 59 0.0 0.0 0.00 0.00 0.00 76 1017.3
20260507222006 53 59 0.0 1.0 0.00 0.00 0.00 76 1017.3
20260507221506 53 59 0.0 1.0 0.00 0.00 0.00 75 1017.3
20260507215506 54 59 0.0 0.0 0.00 0.00 0.00 74 1017.3
20260507215006 54 59 0.0 2.0 0.00 0.00 0.00 74 1017.3
20260507211506 54 59 1.0 3.0 0.00 0.00 0.00 71 1017.3
20260507211007 54 59 0.0 1.0 0.00 0.00 0.00 70 1017.3
20260507204506 55 59 0.0 3.0 0.00 0.00 0.00 67 1017.1
20260507204006 55 59 1.0 3.0 0.00 0.00 0.00 67 1017.0
20260507203506 55 59 1.0 3.0 0.00 0.00 0.00 66 1016.9
20260507203006 56 59 0.0 3.0 0.00 0.00 0.00 65 1016.9
20260507202506 56 59 2.0 5.0 0.00 0.00 0.00 64 1016.9
20260507202007 56 58 1.0 3.0 0.00 0.00 0.00 63 1016.9
20260507200006 56 58 1.0 3.0 0.00 0.00 0.00 59 1016.8
20260507195007 56 58 1.0 3.0 0.00 0.00 0.00 57 1016.7
20260507194507 57 58 1.0 2.0 0.00 0.00 0.00 57 1016.6
20260507193006 57 58 1.0 3.0 0.00 0.00 0.00 55 1016.4
20260507192505 57 58 1.0 3.0 0.00 0.00 0.00 55 1016.4
20260507192007 57 58 1.0 5.0 0.00 0.00 0.00 55 1016.3
20260507191506 57 58 2.0 3.0 0.00 0.00 0.00 55 1016.4
20260507191007 58 58 1.0 3.0 0.00 0.00 0.00 55 1016.4
20260507185506 58 58 1.0 3.0 0.00 0.00 0.00 55 1016.3
20260507185006 58 57 1.0 3.0 0.00 0.00 0.00 56 1016.4
20260507184506 59 57 0.0 3.0 0.00 0.00 0.00 55 1016.3
20260507182505 59 59 2.0 5.0 0.00 0.00 0.00 54 1016.3
20260507182009 59 58 0.0 3.0 0.00 0.00 0.00 54 1016.3
20260507181505 59 58 2.0 7.0 0.00 0.00 0.00 54 1016.3
20260507181006 59 29 1.0 6.0 0.00 0.00 0.00 55 1016.3
20260507174505 59 4 3.0 7.0 0.00 0.00 0.00 54 1016.3
20260507174006 59 27 3.0 7.0 0.00 0.00 0.00 53 1016.3
20260507173506 59 65 3.0 8.0 0.00 0.00 0.00 54 1016.3
20260507173006 60 10 2.0 6.0 0.00 0.00 0.00 57 1016.2
20260507172506 60 5 2.0 5.0 0.00 0.00 0.00 55 1016.3
20260507172006 60 0 5.0 8.0 0.00 0.00 0.00 53 1016.3
20260507171505 60 3 3.0 5.0 0.00 0.00 0.00 53 1016.3
20260507171006 60 0 1.0 8.0 0.00 0.00 0.00 54 1016.3
20260507165505 60 13 3.0 6.0 0.00 0.00 0.00 53 1016.3
20260507165005 60 17 4.0 9.0 0.00 0.00 0.00 54 1016.2
20260507164505 60 14 5.0 8.0 0.00 0.00 0.00 57 1016.2
20260507162505 60 333 1.0 3.0 0.00 0.00 0.00 54 1016.3
20260507162006 60 333 2.0 3.0 0.00 0.00 0.00 54 1016.2
20260507161505 59 61 2.0 8.0 0.00 0.00 0.00 53 1016.2
20260507161005 59 343 2.0 7.0 0.00 0.00 0.00 54 1016.2
20260507160005 60 3 4.0 7.0 0.00 0.00 0.00 54 1016.2
20260507153505 60 58 4.0 9.0 0.00 0.00 0.00 54 1016.0
20260507153006 60 350 3.0 6.0 0.00 0.00 0.00 53 1016.1
20260507152505 60 339 3.0 7.0 0.00 0.00 0.00 54 1016.0
20260507152005 60 343 3.0 8.0 0.00 0.00 0.00 56 1016.0
20260507151505 59 9 4.0 8.0 0.00 0.00 0.00 58 1016.1
20260507151006 59 315 2.0 10.0 0.00 0.00 0.00 57 1016.0
20260507150005 59 315 5.0 8.0 0.00 0.00 0.00 60 1016.0
20260507145505 59 355 5.0 8.0 0.00 0.00 0.00 60 1016.0
20260507144005 59 345 5.0 8.0 0.00 0.00 0.00 61 1016.0